Epoch 2011 Feb. 8.0 TT = JDT 2455600.5 T 2011 Feb. 8.73422 TT MPC q 2.1469224 (2000.0) P Q n 0.06753603 Peri. 209.91619 +0.53579257 -0.84276413 a 5.9718979 Node 207.78349 +0.79502197 +0.52417361 e 0.6404958 Incl. 6.37039 +0.28437017 +0.12243630 P 14.6 From 115 observations 1996 Sept. 14-2011 Jan. 7, mean residual 0".6.
m1 = 14.0 + 5 logΔ + 10.0 log r